sat.trackr.live / text

‹ back to catalog

STARLINK-35955

NORAD 66635 · 2025-271U

PAYLOAD ACTIVE UNKNOWN

§ Identity

Operator
Country
US
Launch date
2025-11-23
Launch site
AFWTR
Launch vehicle
Mass (kg)
RCS (m²)

Purposes: comms

External: N2YO · Heavens-Above · Gunter

§ Orbital elements

Epoch: 2026-05-25T00:48:47.975040Z

Period
94.10 min
Inclination
53.1571°
Eccentricity
0.0001405
Mean motion
15.30207653 rev/d
Perigee alt
474.2 km
Apogee alt
476.2 km
Semi-major
6,853.3 km
B*
4.5028e-4
RAAN
145.4410°
Arg perigee
99.3479°
Mean anomaly
260.7680°
Rev number
2,925

§ Raw data

STARLINK-359551 66635U 25271U   26145.03388860  .00013003  00000+0  45028-3 0  99952 66635  53.1571 145.4410 0001405  99.3479 260.7680 15.30207653 29259

JSON: /api/v1/satellites/66635 · /tle

For live sub-satellite position, see the globe view (requires WebGL).

§ Visibility from observer

Set your observer location to see the next 7 days of passes ≥ 10°. The values pass through the URL so the page stays shareable.

No JS? Fill the form by hand. The geolocation button needs JavaScript.